EW7502 Weather Reports


time (UTC)temp
F
wind
direction
speed
knots
gust
knots
rain 1hr
in
rain 24hr
in
rain mn
in
humidity
%
barometer
mb
20260504214540 72 236 0.0 0.0 0.00 0.00 0.00 35 1008.8
20260504213044 73 182 0.0 0.0 0.00 0.00 0.00 35 1008.8
20260504211544 73 173 0.0 0.0 0.00 0.00 0.00 36 1008.9
20260504210038 73 231 0.0 0.0 0.00 0.00 0.00 36 1009.0
20260504204539 74 164 0.0 0.0 0.00 0.00 0.00 33 1009.0
20260504203035 73 200 0.0 0.0 0.00 0.00 0.00 34 1008.9
20260504201533 73 182 0.0 0.0 0.00 0.00 0.00 34 1009.0
20260504200032 73 195 0.0 0.0 0.00 0.00 0.00 35 1009.0
20260504194531 74 227 0.0 0.0 0.00 0.00 0.00 33 1009.1
20260504193029 73 151 0.0 0.0 0.00 0.00 0.00 35 1009.2
20260504191527 73 193 0.0 0.0 0.00 0.00 0.00 34 1009.5
20260504190024 73 217 0.0 0.0 0.00 0.00 0.00 35 1009.8
20260504184522 73 165 0.0 0.0 0.00 0.00 0.00 34 1010.0
20260504183020 73 183 0.0 0.0 0.00 0.00 0.00 37 1010.2
20260504181518 73 235 0.0 0.0 0.00 0.00 0.00 34 1010.4
20260504180013 72 212 0.0 0.0 0.00 0.00 0.00 38 1010.6
20260504174511 71 204 0.0 0.0 0.00 0.00 0.00 37 1010.9
20260504173009 71 222 0.0 0.0 0.00 0.00 0.00 37 1010.9
20260504171507 71 173 0.0 0.0 0.00 0.00 0.00 37 1011.1
20260504081521 33 223 0.0 0.0 0.00 0.00 0.00 90 1014.0
20260504050106 35 223 0.0 0.0 0.00 0.00 0.00 86 1013.6
20260504044601 35 223 0.0 0.0 0.00 0.00 0.00 85 1013.5
20260504043056 35 223 0.0 0.0 0.00 0.00 0.00 85 1013.3
20260504041557 36 223 0.0 0.0 0.00 0.00 0.00 84 1013.2
20260504040052 36 223 0.0 0.0 0.00 0.00 0.00 84 1013.0
20260504034549 37 223 0.0 0.0 0.00 0.00 0.00 84 1012.9
20260504033046 37 223 0.0 0.0 0.00 0.00 0.00 82 1012.9
20260504031547 37 223 0.0 0.0 0.00 0.00 0.00 82 1012.7
20260504030042 38 223 0.0 0.0 0.00 0.00 0.00 81 1012.7
20260504024551 38 223 0.0 0.0 0.00 0.00 0.00 80 1012.7
20260504023038 39 223 0.0 0.0 0.00 0.00 0.00 78 1012.8
20260504021536 40 223 0.0 0.0 0.00 0.00 0.00 77 1012.6
20260504020033 41 223 0.0 0.0 0.00 0.00 0.00 76 1012.6
20260504014532 42 223 0.0 0.0 0.00 0.00 0.00 75 1012.5
20260504013035 43 223 0.0 0.0 0.00 0.00 0.00 73 1012.4
20260504011532 44 223 0.0 0.0 0.00 0.00 0.00 70 1012.2
20260504010030 45 223 0.0 0.0 0.00 0.00 0.00 68 1012.0
20260504004530 48 223 0.0 0.0 0.00 0.00 0.00 63 1011.8
20260504003038 49 223 0.0 0.0 0.00 0.00 0.00 59 1011.7
20260504001528 52 223 0.0 0.0 0.00 0.00 0.00 53 1011.5
20260504000051 54 223 0.0 0.0 0.00 0.00 0.00 49 1011.2
20260503234528 56 223 0.0 0.0 0.00 0.00 0.00 43 1011.0
20260503233027 57 216 0.0 0.0 0.00 0.00 0.00 38 1011.0
20260503231529 58 234 0.0 0.0 0.00 0.00 0.00 36 1010.9
20260503230026 58 209 0.0 0.0 0.00 0.00 0.00 35 1010.7
20260503224526 59 213 0.0 0.0 0.00 0.00 0.00 35 1010.7
20260503223032 59 213 0.0 0.0 0.00 0.00 0.00 32 1010.7
20260503221524 60 207 0.0 0.0 0.00 0.00 0.00 33 1010.6
20260503220024 60 188 0.0 0.0 0.00 0.00 0.00 31 1010.8